sat.trackr.live / text

‹ back to catalog

SKY MUSTER 2 (NBN1B)

NORAD 41794 · 2016-060B

PAYLOAD ACTIVE UNKNOWN

§ Identity

Operator
Country
AUS
Launch date
2016-10-05
Launch site
FRGUI
Launch vehicle
Mass (kg)
RCS (m²)
0.00

Purposes: comms

External: N2YO · Heavens-Above · Gunter

§ Orbital elements

Epoch: 2026-05-24T23:17:52.804320Z

Period
1,436.08 min
Inclination
0.0146°
Eccentricity
0.0001678
Mean motion
1.00272870 rev/d
Perigee alt
35,779.2 km
Apogee alt
35,793.4 km
Semi-major
42,164.4 km
B*
0.0000e+0
RAAN
295.5559°
Arg perigee
120.4751°
Mean anomaly
320.8047°
Rev number
3,528

§ Raw data

SKY MUSTER 2 (NBN1B)1 41794U 16060B   26144.97075005 -.00000247  00000+0  00000+0 0  99902 41794   0.0146 295.5559 0001678 120.4751 320.8047  1.00272870 35289

JSON: /api/v1/satellites/41794 · /tle

For live sub-satellite position, see the globe view (requires WebGL).

§ Visibility from observer

Set your observer location to see the next 7 days of passes ≥ 10°. The values pass through the URL so the page stays shareable.

No JS? Fill the form by hand. The geolocation button needs JavaScript.